Temp
-15 -15 -15 -15 -15 -15 -15 -15 -15 -15 -15 -15 -15 -15 -15 -15 -15 -15 -15 -15 -15 -15 -15 -15 -15 -15 -15 -15 -15 -15 -15 -15 -15 -15 -15 -15 -14 -14 -15 -15 -15 -15
-15 -15 -15 -15 -15 -15 -15 -15 -15 -15 -15 -15 -15 -15 -15 -15 -15 -15 -15 -15 -15 -15 -15 -15 -15 -15 -15 -15 -15 -15 -15 -15 -15 -15 -15 -15 -15 -15 -15 -15 -15 -15
-16 -15 -15 -15 -15 -15 -15 -15 -15 -15 -15 -15 -15 -15 -15 -15 -15 -15 -15 -15 -15 -15 -15 -15 -15 -15 -15 -15 -15 -15 -15 -15 -15 -15 -15 -15 -15 -15 -15 -15 -15 -15
-16 -16 -16 -15 -15 -15 -15 -15 -15 -15 -15 -15 -15 -16 -15 -15 -15 -15 -15 -15 -15 -15 -15 -15 -15 -15 -15 -15 -15 -15 -15 -15 -15 -15 -15 -15 -15 -15 -15 -15 -15 -15
-16 -16 -16 -16 -16 -16 -15 -15 -15 -15 -15 -15 -15 -16 -15 -15 -15 -15 -15 -15 -15 -15 -15 -15 -15 -15 -15 -15 -15 -15 -15 -15 -15 -15 -15 -16 -16 -16 -16 -16 -16 -15
-16 -16 -16 -16 -16 -16 -16 -16 -16 -15 -15 -15 -15 -15 -15 -15 -15 -15 -15 -15 -15 -15 -15 -15 -15 -15 -15 -15 -15 -14 -14 -15 -15 -15 -15 -16 -16 -16 -16 -16 -16 -16
-16 -16 -16 -15 -16 -16 -16 -16 -16 -15 -15 -15 -15 -15 -15 -15 -15 -16 -15 -15 -15 -15 -15 -15 -15 -15 -15 -15 -15 -15 -14 -14 -15 -15 -15 -15 -16 -16 -16 -16 -16 -16
-16 -16 -16 -16 -16 -16 -16 -16 -16 -16 -15 -15 -15 -15 -15 -15 -16 -16 -16 -16 -15 -15 -15 -15 -15 -15 -15 -15 -15 -15 -15 -15 -15 -15 -15 -15 -16 -16 -16 -16 -16 -16
-16 -16 -16 -16 -16 -16 -16 -16 -16 -16 -16 -16 -16 -16 -15 -16 -16 -16 -16 -16 -16 -15 -15 -15 -15 -15 -15 -15 -15 -15 -15 -15 -15 -15 -15 -16 -16 -16 -16 -16 -16 -16
-16 -16 -16 -16 -16 -16 -16 -16 -16 -16 -16 -16 -16 -16 -16 -16 -16 -16 -16 -16 -16 -16 -16 -15 -15 -15 -15 -15 -15 -15 -15 -15 -15 -15 -16 -16 -16 -16 -16 -16 -16 -16
-16 -16 -16 -16 -16 -16 -16 -16 -16 -16 -16 -16 -16 -16 -16 -16 -16 -16 -16 -16 -16 -16 -16 -16 -16 -15 -15 -15 -15 -15 -15 -16 -16 -16 -16 -16 -16 -16 -16 -17 -17 -17
-16 -16 -16 -16 -16 -16 -16 -16 -16 -16 -16 -16 -16 -16 -16 -16 -16 -16 -16 -16 -16 -16 -16 -16 -16 -16 -16 -16 -16 -16 -16 -16 -16 -16 -16 -16 -16 -16 -16 -17 -17 -17
-16 -16 -16 -16 -16 -16 -16 -16 -16 -16 -16 -16 -16 -16 -16 -16 -16 -16 -16 -16 -16 -16 -16 -16 -16 -16 -16 -16 -16 -16 -16 -16 -16 -16 -16 -16 -16 -17 -17 -17 -17 -17
-16 -16 -16 -16 -16 -16 -16 -16 -16 -16 -16 -16 -16 -16 -16 -16 -16 -16 -16 -16 -16 -16 -16 -16 -16 -16 -16 -16 -16 -16 -16 -16 -16 -17 -17 -17 -17 -17 -17 -17 -17 -17
-16 -16 -16 -16 -16 -16 -16 -16 -16 -16 -16 -16 -16 -16 -17 -17 -17 -17 -16 -16 -16 -16 -16 -16 -17 -17 -17 -17 -17 -17 -17 -17 -17 -17 -17 -17 -17 -17 -17 -17 -17 -17
-15 -16 -16 -16 -16 -16 -16 -16 -16 -16 -16 -17 -17 -17 -17 -17 -17 -17 -17 -17 -17 -17 -17 -17 -17 -17 -17 -17 -17 -17 -17 -17 -17 -17 -17 -17 -17 -17 -17 -17 -17 -17
-15 -15 -16 -16 -16 -16 -16 -16 -16 -16 -17 -17 -17 -17 -17 -17 -17 -17 -17 -17 -17 -17 -17 -17 -17 -17 -17 -17 -17 -17 -17 -17 -17 -17 -17 -17 -17 -18 -18 -18 -18 -18
-15 -16 -16 -16 -16 -16 -16 -16 -16 -16 -17 -17 -17 -17 -17 -17 -18 -18 -18 -18 -17 -17 -17 -17 -17 -17 -17 -17 -18 -18 -17 -17 -17 -17 -17 -18 -18 -18 -18 -18 -18 -18
-16 -16 -16 -16 -16 -16 -16 -16 -16 -16 -16 -16 -17 -17 -18 -18 -18 -18 -18 -18 -17 -17 -17 -18 -18 -18 -18 -18 -18 -18 -18 -18 -18 -18 -18 -18 -18 -18 -18 -18 -18 -18
-16 -16 -16 -16 -16 -16 -16 -16 -16 -16 -16 -16 -16 -17 -18 -18 -18 -18 -18 -18 -18 -17 -18 -18 -18 -18 -18 -18 -18 -18 -18 -18 -18 -18 -18 -18 -18 -18 -18 -18 -18 -18
-16 -16 -16 -17 -17 -17 -17 -17 -17 -17 -17 -17 -17 -17 -17 -17 -18 -18 -18 -18 -18 -18 -18 -18 -18 -18 -18 -18 -18 -18 -18 -18 -18 -18 -18 -18 -18 -18 -18 -18 -18 -18
-17 -17 -17 -17 -17 -17 -17 -17 -17 -17 -17 -17 -17 -17 -17 -17 -18 -18 -18 -18 -18 -18 -18 -18 -18 -18 -18 -18 -18 -18 -18 -18 -18 -18 -18 -18 -18 -18 -18 -18 -18 -18
-17 -17 -17 -17 -17 -17 -17 -17 -17 -17 -18 -18 -18 -18 -18 -18 -18 -18 -18 -18 -18 -18 -18 -18 -18 -18 -18 -18 -18 -18 -18 -18 -18 -18 -18 -18 -18 -19 -18 -18 -18 -18
-17 -17 -17 -17 -17 -17 -17 -17 -17 -18 -18 -18 -18 -18 -18 -18 -18 -18 -18 -18 -18 -18 -18 -18 -18 -18 -18 -19 -19 -19 -19 -19 -18 -19 -19 -19 -19 -19 -18 -18 -18 -18
-17 -17 -18 -18 -17 -17 -17 -17 -17 -17 -18 -18 -18 -18 -18 -18 -18 -18 -18 -18 -18 -18 -18 -18 -18 -18 -18 -18 -19 -19 -19 -19 -18 -18 -19 -19 -19 -19 -19 -19 -18 -18
-18 -18 -18 -18 -18 -18 -18 -18 -18 -18 -18 -18 -18 -18 -18 -18 -18 -18 -18 -19 -19 -19 -19 -18 -18 -18 -18 -18 -18 -19 -18 -18 -18 -18 -18 -18 -18 -18 -19 -19 -18 -18
Height
5766 5767 5767 5767 5768 5769 5770 5770 5771 5772 5773 5774 5774 5775 5775 5775 5776 5776 5777 5777 5778 5779 5780 5781 5782 5783 5784 5784 5785 5786 5786 5787 5788 5788 5789 5790 5790 5791 5791 5792 5792 5793
5764 5765 5765 5766 5767 5768 5768 5769 5770 5771 5772 5772 5773 5773 5774 5774 5774 5774 5775 5776 5777 5778 5778 5780 5781 5782 5783 5783 5784 5784 5785 5786 5786 5787 5788 5788 5789 5789 5790 5790 5790 5791
5763 5763 5764 5765 5766 5767 5767 5768 5769 5770 5771 5771 5771 5772 5773 5773 5773 5773 5774 5775 5776 5777 5777 5778 5779 5780 5781 5782 5782 5783 5783 5784 5785 5785 5786 5786 5787 5787 5788 5788 5788 5789
5761 5762 5763 5764 5765 5766 5767 5767 5768 5768 5769 5770 5770 5771 5772 5772 5773 5773 5773 5774 5775 5776 5777 5777 5778 5778 5779 5779 5780 5781 5781 5782 5783 5784 5784 5784 5785 5785 5785 5786 5786 5787
5760 5760 5761 5762 5763 5765 5766 5766 5767 5767 5768 5769 5770 5771 5771 5772 5772 5772 5773 5774 5775 5775 5776 5776 5776 5777 5777 5778 5778 5779 5780 5780 5781 5781 5782 5782 5783 5783 5783 5784 5784 5785
5758 5759 5759 5760 5761 5763 5764 5765 5765 5766 5767 5768 5769 5770 5771 5771 5771 5772 5772 5773 5774 5774 5775 5775 5775 5776 5776 5776 5777 5777 5778 5778 5779 5779 5780 5780 5781 5781 5781 5782 5782 5783
5757 5758 5758 5759 5760 5761 5762 5763 5763 5764 5765 5766 5768 5769 5769 5770 5770 5771 5772 5772 5773 5773 5774 5774 5775 5775 5775 5775 5776 5776 5777 5777 5777 5778 5778 5779 5779 5779 5780 5780 5781 5781
5756 5757 5758 5758 5759 5760 5760 5761 5762 5763 5763 5765 5766 5767 5768 5768 5769 5769 5770 5771 5771 5772 5773 5773 5774 5774 5774 5775 5775 5775 5775 5775 5776 5776 5776 5777 5777 5778 5778 5778 5779 5779
5754 5755 5756 5757 5758 5759 5759 5759 5760 5761 5761 5763 5764 5765 5766 5766 5767 5768 5768 5769 5770 5770 5771 5772 5772 5773 5773 5773 5774 5774 5774 5774 5774 5775 5775 5775 5775 5776 5776 5777 5777 5777
5750 5752 5752 5753 5755 5756 5757 5758 5758 5759 5760 5761 5761 5762 5763 5764 5765 5766 5766 5767 5768 5768 5769 5770 5770 5771 5771 5772 5772 5772 5772 5772 5773 5773 5773 5774 5774 5774 5775 5775 5775 5776
5747 5748 5749 5750 5751 5753 5754 5756 5756 5757 5758 5758 5759 5760 5761 5762 5763 5764 5765 5766 5766 5767 5767 5768 5769 5769 5769 5770 5770 5770 5770 5771 5771 5771 5772 5772 5773 5773 5773 5774 5774 5774
5744 5746 5747 5747 5749 5750 5752 5753 5754 5755 5756 5756 5757 5757 5759 5760 5761 5762 5763 5764 5764 5765 5766 5766 5767 5767 5767 5767 5768 5768 5768 5769 5769 5769 5770 5770 5771 5771 5772 5772 5772 5773
5743 5744 5744 5745 5746 5747 5749 5750 5751 5752 5753 5754 5754 5755 5757 5758 5759 5760 5761 5762 5762 5763 5764 5764 5765 5765 5765 5765 5765 5766 5766 5767 5767 5767 5768 5768 5769 5769 5770 5770 5771 5771
5740 5741 5741 5742 5743 5745 5746 5747 5748 5749 5750 5751 5752 5753 5754 5755 5756 5758 5759 5759 5760 5761 5761 5762 5762 5762 5762 5763 5763 5763 5764 5765 5765 5766 5766 5767 5767 5767 5768 5768 5768 5769
5737 5738 5739 5740 5741 5742 5743 5744 5745 5746 5748 5749 5750 5750 5752 5753 5754 5755 5756 5757 5758 5758 5759 5760 5760 5760 5760 5760 5761 5761 5762 5763 5763 5764 5764 5765 5765 5765 5765 5766 5766 5766
5734 5735 5736 5738 5739 5740 5741 5742 5743 5744 5745 5747 5748 5748 5749 5751 5752 5753 5754 5755 5755 5756 5756 5757 5757 5758 5758 5758 5758 5759 5759 5760 5761 5761 5762 5762 5762 5763 5763 5763 5763 5764
5732 5733 5734 5735 5736 5737 5738 5739 5740 5741 5742 5743 5744 5745 5746 5747 5748 5750 5751 5751 5752 5752 5753 5753 5754 5754 5754 5755 5755 5756 5756 5757 5758 5758 5759 5759 5759 5759 5760 5760 5760 5761
5730 5730 5732 5733 5734 5735 5736 5737 5738 5738 5738 5739 5740 5741 5742 5743 5744 5745 5746 5747 5748 5749 5749 5749 5750 5750 5751 5751 5752 5752 5753 5754 5755 5755 5756 5756 5756 5756 5756 5757 5757 5757
5727 5729 5729 5730 5731 5733 5734 5735 5735 5735 5736 5736 5736 5737 5738 5739 5740 5741 5742 5743 5744 5744 5745 5745 5746 5746 5747 5748 5748 5749 5750 5751 5751 5752 5752 5752 5752 5752 5753 5753 5753 5753
5724 5726 5726 5726 5728 5730 5731 5732 5732 5733 5733 5733 5733 5734 5734 5735 5736 5737 5738 5739 5740 5740 5741 5741 5742 5742 5743 5744 5744 5745 5746 5746 5747 5747 5748 5748 5748 5748 5748 5748 5748 5748
5721 5722 5723 5723 5725 5727 5728 5728 5729 5730 5730 5730 5731 5731 5732 5732 5733 5734 5735 5736 5736 5736 5737 5737 5738 5738 5739 5739 5740 5741 5741 5742 5742 5743 5743 5743 5743 5743 5743 5743 5743 5743
5718 5719 5720 5720 5722 5724 5725 5725 5725 5726 5727 5727 5728 5728 5729 5729 5730 5731 5732 5732 5732 5732 5733 5733 5734 5734 5734 5735 5735 5736 5737 5737 5738 5738 5738 5738 5738 5738 5738 5739 5738 5738
5715 5716 5717 5717 5719 5721 5721 5721 5722 5723 5723 5724 5725 5725 5726 5727 5727 5728 5728 5728 5728 5728 5728 5728 5729 5729 5729 5730 5730 5731 5731 5732 5732 5733 5733 5733 5733 5733 5733 5734 5734 5733
5712 5713 5714 5714 5716 5718 5719 5719 5719 5719 5719 5720 5721 5722 5723 5723 5724 5724 5724 5724 5723 5723 5723 5723 5723 5724 5724 5724 5724 5725 5725 5726 5727 5727 5727 5727 5727 5727 5728 5728 5728 5727
5708 5709 5710 5711 5712 5713 5715 5716 5717 5717 5717 5717 5717 5717 5718 5718 5719 5719 5719 5719 5719 5718 5717 5717 5718 5718 5719 5718 5718 5719 5719 5719 5720 5721 5721 5721 5721 5721 5721 5721 5721 5721
5704 5705 5706 5706 5707 5708 5710 5711 5713 5714 5715 5714 5713 5712 5712 5712 5712 5713 5714 5714 5714 5714 5713 5712 5712 5712 5712 5712 5712 5712 5713 5713 5713 5714 5714 5714 5714 5714 5715 5715 5714 5714
Wind_Speed
12 11 11 11 10 11 13 14 14 13 13 13 13 12 12 11 11 12 12 13 12 12 13 12 12 11 11 10 10 10 10 10 10 10 10 10 10 10 11 11 12 13
12 11 10 9 8 9 12 13 13 13 12 13 12 11 11 11 11 11 12 13 13 13 13 14 14 14 13 13 13 13 13 13 13 12 12 11 11 11 11 12 12 13
12 12 11 10 10 10 12 14 14 14 13 13 12 11 10 10 10 10 10 10 11 13 13 13 13 14 14 14 15 15 15 14 14 13 13 12 12 12 13 13 13 14
14 13 13 13 13 12 14 15 14 13 13 13 12 10 10 9 9 9 8 7 8 10 12 12 13 13 13 13 14 14 14 14 13 13 13 13 13 13 14 14 15 15
16 14 14 14 14 13 14 14 13 12 12 12 11 10 10 9 8 8 8 8 7 9 11 12 12 12 11 11 11 12 12 12 12 13 13 13 13 14 14 15 15 16
18 16 15 15 14 14 14 14 13 13 12 12 11 12 12 11 10 10 10 10 9 10 11 11 11 11 11 10 10 10 10 10 11 11 12 12 12 13 14 14 15 15
19 17 16 16 16 16 15 15 14 14 14 14 14 15 15 15 14 13 13 13 12 12 12 11 11 11 11 11 10 10 10 11 11 11 11 11 12 12 13 14 14 15
17 16 15 15 17 17 17 17 16 16 16 16 16 17 18 18 17 16 16 15 15 14 13 12 12 12 12 12 12 11 11 11 11 11 11 11 11 12 12 13 13 14
15 15 15 15 16 17 18 18 18 17 17 17 18 19 19 19 18 17 17 16 16 15 14 13 13 13 13 13 12 12 12 12 11 11 11 10 10 10 11 11 12 13
15 16 17 17 16 16 17 19 19 19 18 17 18 19 19 18 17 17 17 17 16 16 15 14 13 13 13 13 13 13 13 12 11 11 10 10 10 10 10 11 12 12
17 18 19 19 18 18 18 19 20 20 18 17 18 18 18 18 17 17 17 17 16 16 15 14 14 14 15 15 15 14 14 13 12 11 11 10 11 11 12 12 13 13
19 18 19 20 20 20 20 20 20 20 19 18 18 18 18 18 18 18 18 18 17 16 15 15 16 16 17 17 16 16 15 14 13 13 12 12 12 12 13 13 13 14
21 19 19 19 20 20 20 20 20 21 21 20 19 18 17 19 20 20 19 19 18 18 17 17 18 18 18 18 17 17 17 16 15 14 13 13 13 13 13 14 14 15
20 20 19 17 17 18 20 20 20 21 22 22 21 20 19 20 21 21 20 20 20 20 20 19 19 19 19 18 18 17 17 16 16 15 14 14 14 14 15 15 16 16
18 19 19 18 18 19 20 21 22 22 23 23 24 23 21 21 21 22 22 22 22 22 22 21 21 20 20 19 18 17 17 17 16 15 15 15 15 16 16 17 18 18
20 21 21 20 20 20 20 21 21 22 23 23 24 25 23 22 22 23 24 24 24 24 23 23 22 22 22 21 20 19 18 18 18 17 17 17 17 18 19 19 20 20
19 21 22 21 20 20 20 19 20 22 23 23 24 25 25 23 23 25 26 26 26 25 24 24 24 23 23 22 21 21 20 20 20 20 20 20 20 21 21 22 22 22
20 21 21 21 20 20 19 19 21 23 24 24 25 25 25 25 25 26 27 27 26 25 25 26 26 25 24 23 22 22 22 22 23 23 24 24 24 24 24 25 25 24
22 22 21 20 21 22 22 22 23 24 26 27 27 27 26 26 26 27 28 28 27 27 27 27 26 25 25 25 25 24 24 25 25 26 26 26 27 27 27 27 27 27
23 23 23 22 22 23 23 23 24 25 27 28 28 28 27 27 27 27 28 28 28 28 27 27 27 27 28 28 28 28 28 28 28 29 29 29 29 30 30 30 30 30
23 23 23 24 24 24 24 24 24 25 26 28 28 28 28 28 29 28 27 27 27 27 28 29 30 31 31 31 31 31 30 31 31 31 31 32 32 32 32 32 32 33
23 22 22 23 24 23 23 24 24 24 26 27 28 28 28 28 28 27 26 27 28 29 31 32 33 34 34 34 34 33 33 33 33 33 33 34 34 35 35 35 36 36
24 23 22 23 23 22 23 25 25 25 26 28 29 30 30 29 29 29 30 31 31 32 34 35 36 36 37 37 37 36 36 35 35 35 36 36 37 38 38 39 40 41
25 24 23 24 24 23 23 24 23 26 29 29 29 31 33 33 34 34 35 35 35 36 37 38 39 39 39 39 40 40 39 39 39 39 39 40 40 41 42 43 44 45
26 26 25 26 26 26 27 26 26 28 30 31 32 34 35 37 37 37 38 38 38 39 40 41 42 42 42 43 43 43 43 43 43 43 43 44 44 45 46 46 47 48
29 28 28 28 28 29 30 30 30 31 31 32 34 34 34 38 39 38 38 39 39 40 42 43 45 46 46 46 46 46 46 46 46 47 48 48 49 49 50 50 50 51
Wind_Direction
241 240 240 240 241 236 230 228 227 219 211 212 213 212 215 220 224 227 231 231 227 225 225 222 220 220 223 228 231 234 237 240 243 247 250 253 258 263 266 265 264 263
228 229 231 233 236 230 225 227 227 220 217 221 223 223 227 231 234 235 236 235 230 228 228 228 226 226 229 235 240 243 246 247 248 250 252 255 259 264 267 268 268 268
231 235 240 246 248 242 234 232 232 228 225 226 228 231 232 234 240 244 244 240 233 229 231 233 235 236 237 239 243 246 249 251 252 252 253 255 258 262 266 268 269 270
241 243 247 252 255 253 244 237 235 232 227 223 223 227 232 236 243 249 252 249 236 229 229 232 235 238 239 242 244 246 249 251 252 251 251 253 257 261 264 266 268 269
245 247 247 252 257 254 246 242 239 236 229 223 222 225 228 234 244 254 260 260 250 236 228 227 230 232 236 240 241 242 244 245 245 245 246 250 255 259 262 263 266 268
248 249 245 247 253 251 247 250 252 250 244 236 232 231 231 234 242 253 260 261 253 240 231 228 230 233 236 238 239 241 242 241 242 242 244 248 251 255 258 260 263 266
252 253 249 246 250 251 253 257 259 259 257 253 247 243 242 242 246 252 257 255 248 241 237 235 235 236 238 240 243 245 246 246 246 247 249 252 254 256 258 260 262 265
257 260 260 255 253 257 262 264 262 261 262 263 261 258 256 255 255 255 253 249 245 244 245 243 241 240 242 244 246 246 247 247 247 247 249 252 255 259 261 263 264 265
258 262 264 260 257 260 265 265 262 261 264 269 271 270 267 264 260 255 249 244 243 244 246 247 246 246 247 247 248 248 248 247 245 246 248 251 256 260 263 265 266 266
250 255 256 256 256 258 260 261 261 262 267 273 276 275 272 267 261 252 245 241 241 243 245 248 249 251 252 253 253 251 248 245 244 245 247 251 255 259 262 263 265 266
245 249 249 249 251 254 256 259 262 264 267 274 278 276 273 268 259 250 245 242 241 242 245 248 249 251 253 253 253 250 246 244 243 244 246 248 251 253 255 257 259 262
255 255 254 253 253 254 257 260 262 264 265 268 272 274 271 264 256 249 246 244 243 244 246 249 250 252 253 252 250 248 247 245 244 245 247 248 250 250 251 253 255 257
260 260 260 258 256 255 256 260 262 264 265 266 267 267 264 257 252 248 246 245 245 247 249 252 252 252 252 252 250 249 248 247 247 249 251 252 254 256 256 256 255 254
264 263 258 256 259 257 255 258 262 264 266 266 267 265 259 253 250 247 247 246 247 249 252 254 254 252 252 251 250 249 249 250 250 252 255 258 260 262 262 261 259 258
261 259 252 252 260 257 252 254 260 264 264 265 267 266 260 255 252 250 249 249 250 253 256 256 256 254 254 253 251 250 250 251 251 252 255 258 261 263 263 262 261 261
254 253 250 253 257 252 247 251 257 262 262 262 265 265 260 255 254 253 252 252 253 255 256 257 258 258 256 255 253 251 250 250 252 254 255 256 257 259 259 259 260 260
256 253 250 251 250 243 241 247 254 259 260 260 260 260 256 252 251 252 254 254 254 254 255 256 257 257 254 253 253 253 253 255 257 259 260 260 259 259 258 259 259 259
257 253 252 250 244 240 243 250 256 258 258 259 257 254 251 248 246 249 252 252 250 250 252 254 256 256 255 254 254 255 256 259 261 263 264 265 264 264 263 263 262 261
256 256 257 251 243 245 252 259 262 260 259 259 257 252 249 246 245 246 248 248 248 249 251 252 254 257 258 258 258 259 260 262 264 265 266 266 266 266 266 266 266 266
256 254 255 253 252 255 258 262 266 265 263 262 261 257 251 245 243 245 247 248 250 254 256 257 259 259 259 259 259 260 262 264 265 266 266 266 266 266 266 267 267 268
256 253 254 257 259 260 262 265 267 267 265 262 261 261 258 251 245 245 248 251 255 259 262 263 263 260 258 258 259 261 263 264 265 265 265 265 265 266 266 267 269 270
255 254 255 259 261 261 263 267 270 270 267 264 260 259 259 255 248 245 248 253 258 261 262 262 262 260 259 259 260 262 264 264 264 264 263 263 264 265 265 267 268 270
252 252 253 256 259 261 265 269 271 270 266 262 259 256 255 254 251 250 253 257 261 262 262 261 261 260 260 261 262 264 265 265 266 265 265 265 266 266 266 267 269 270
247 249 250 252 254 256 259 263 266 267 266 263 258 255 254 254 254 255 258 260 263 266 265 264 262 262 262 263 263 264 265 266 266 266 267 267 267 268 268 268 269 271
244 246 248 250 252 251 251 251 252 257 264 267 264 260 257 256 255 255 258 260 263 265 265 264 263 263 262 262 262 263 264 265 265 265 266 266 267 267 268 268 269 270
243 245 246 247 248 249 250 251 251 251 255 260 263 263 262 260 257 255 256 258 260 262 263 263 263 262 262 261 261 261 261 262 263 264 265 266 266 266 266 267 268 269